Overview Statistics Trail Chart Weather Telemetry Raw packets
 

This is the latest recevied weather packets stored in our database for station/object HG8LXL-2. If no packets are shown the sender has not sent any weather packets the latest 10 day(s).

<< 16 17 18 19 20 21 22 >>
Time Temp. Humidity Pressure Rain* Wind** Luminosity Snow
1788320151 17.78° C 58% 1017.8 hPa - - - -
1788319851 17.78° C 58% 1017.7 hPa - - - -
1788319551 17.78° C 58% 1017.7 hPa - - - -
1788319251 17.78° C 58% 1017.6 hPa - - - -
1788318951 18.33° C 58% 1017.7 hPa - - - -
1788318651 17.78° C 60% 1017.7 hPa - - - -
1788318352 17.78° C 58% 1017.7 hPa - - - -
1788318051 18.33° C 57% 1017.6 hPa - - - -
1788317751 18.89° C 55% 1017.6 hPa - - - -
1788317451 18.33° C 55% 1017.5 hPa - - - -
1788317151 18.89° C 54% 1017.6 hPa - - - -
1788316852 18.89° C 56% 1017.6 hPa - - - -
1788316551 18.89° C 54% 1017.6 hPa - - - -
1788316252 18.89° C 54% 1017.5 hPa - - - -
1788315951 18.89° C 55% 1017.7 hPa - - - -
1788315651 18.89° C 55% 1017.6 hPa - - - -
1788315351 18.89° C 55% 1017.7 hPa - - - -
1788315051 18.89° C 55% 1017.6 hPa - - - -
1788314754 18.89° C 54% 1017.6 hPa - - - -
1788314451 19.44° C 53% 1017.6 hPa - - - -
1788314152 18.89° C 55% 1017.6 hPa - - - -
1788313851 19.44° C 53% 1017.5 hPa - - - -
1788313551 20° C 51% 1017.5 hPa - - - -
1788313252 19.44° C 53% 1017.3 hPa - - - -
1788312951 18.89° C 54% 1017.4 hPa - - - -

* Rain since midnight (hover to see other rain measurements)
** Current wind speed in m/s (hover to see current wind gust speed)